FW4468 Weather Reports


time (UTC)temp
F
wind
direction
speed
knots
gust
knots
rain 1hr
in
rain 24hr
in
rain mn
in
humidity
%
barometer
mb
20260507031600 55 54 0.0 2.6 0.00 0.00 0.00 68 1019.5
20260507030100 55 64 0.0 3.5 0.00 0.00 0.00 67 1019.4
20260507024559 55 69 0.0 2.6 0.00 0.00 0.00 67 1019.3
20260507023059 56 73 0.0 1.7 0.00 0.00 0.00 66 1019.2
20260507021557 56 74 0.0 2.6 0.00 0.00 0.00 66 1019.2
20260507020118 56 73 0.0 1.7 0.00 0.00 0.00 66 1019.2
20260507014600 56 92 0.0 3.5 0.00 0.00 0.00 65 1019.4
20260507013057 57 59 0.0 2.6 0.00 0.00 0.00 65 1019.2
20260507011557 57 111 0.0 0.9 0.00 0.00 0.00 63 1019.5
20260507010109 57 38 0.0 2.6 0.00 0.00 0.00 63 1019.2
20260507004554 57 138 0.0 0.9 0.00 0.00 0.00 64 1019.3
20260507003053 57 138 0.0 1.7 0.00 0.00 0.00 64 1019.2
20260507001557 57 138 0.0 2.6 0.00 0.00 0.00 63 1019.2
20260507000053 57 152 0.0 4.3 0.00 0.00 0.00 63 1019.1
20260506234558 57 186 0.0 1.7 0.00 0.00 0.00 63 1019.1
20260506233053 56 194 0.0 2.6 0.00 0.00 0.00 64 1019.3
20260506231607 56 171 0.0 5.2 0.00 0.00 0.00 64 1019.3
20260506230106 56 144 2.6 7.0 0.00 0.00 0.00 63 1019.3
20260506224551 57 205 0.9 3.5 0.00 0.00 0.00 62 1019.4
20260506223050 57 208 0.0 3.5 0.00 0.00 0.00 63 1019.4
20260506221608 57 128 1.7 4.3 0.00 0.00 0.00 61 1019.3
20260506220104 57 135 1.7 4.3 0.00 0.00 0.00 61 1019.5
20260506214549 57 125 0.9 4.3 0.00 0.00 0.00 61 1019.5
20260506213102 57 236 0.0 6.1 0.00 0.00 0.00 62 1019.5
20260506211542 56 183 1.7 3.5 0.00 0.00 0.00 61 1019.6
20260506210053 56 198 1.7 3.5 0.00 0.00 0.00 61 1019.8
20260506204542 56 189 1.7 4.3 0.00 0.00 0.00 61 1019.6
20260506203039 56 57 0.9 4.3 0.00 0.00 0.00 62 1019.7
20260506201544 56 165 0.9 3.5 0.00 0.00 0.00 62 1019.7
20260506200037 55 193 0.0 6.1 0.00 0.00 0.00 63 1019.7
20260506194533 55 240 1.7 5.2 0.00 0.00 0.00 63 1019.6
20260506193031 55 208 0.9 6.1 0.00 0.00 0.00 63 1019.5
20260506191530 54 187 0.9 7.8 0.00 0.00 0.00 63 1019.5
20260506190030 54 232 0.0 6.1 0.00 0.00 0.00 64 1019.5
20260506184527 54 251 0.9 7.0 0.00 0.00 0.00 64 1019.4
20260506183026 54 178 1.7 5.2 0.00 0.00 0.00 64 1019.4
20260506181524 53 161 0.9 7.8 0.00 0.00 0.00 65 1019.4
20260506180030 54 228 0.9 6.1 0.00 0.00 0.00 65 1019.4
20260506174525 54 257 0.9 7.0 0.00 0.00 0.00 64 1019.1
20260506173021 53 196 0.9 4.3 0.00 0.00 0.00 66 1018.8
20260506171530 54 140 1.7 6.1 0.00 0.00 0.00 66 1019.0
20260506170015 54 182 2.6 7.0 0.00 0.00 0.00 65 1019.2
20260506164513 54 80 0.0 7.0 0.00 0.00 0.00 66 1019.0
20260506163012 53 165 2.6 7.8 0.00 0.00 0.00 66 1019.1
20260506161508 53 257 1.7 8.7 0.00 0.00 0.00 66 1019.0
20260506160005 53 141 0.0 6.1 0.00 0.00 0.00 69 1018.7
20260506154600 53 222 0.9 6.1 0.00 0.00 0.00 69 1018.4
20260506153058 52 174 1.7 6.1 0.00 0.00 0.00 69 1018.3
20260506151559 52 220 0.9 6.1 0.00 0.00 0.00 69 1018.5
20260506150057 52 165 0.0 2.6 0.00 0.00 0.00 70 1018.6
20260506144603 52 124 0.0 7.0 0.00 0.00 0.00 70 1018.6
20260506143055 52 134 1.7 3.5 0.00 0.00 0.00 70 1018.2
20260506141554 52 134 0.9 4.3 0.00 0.00 0.00 70 1018.3
20260506140054 51 227 0.9 2.6 0.00 0.00 0.00 71 1018.4
20260506134552 51 331 0.9 3.5 0.00 0.00 0.00 71 1018.2
20260506133052 52 130 0.0 2.6 0.00 0.00 0.00 70 1018.2
20260506131605 52 144 0.9 3.5 0.00 0.00 0.00 69 1018.1
20260506130054 52 196 0.0 1.7 0.00 0.00 0.00 68 1018.1
20260506124550 52 142 0.0 2.6 0.00 0.00 0.00 68 1018.1
20260506123052 52 165 0.0 5.2 0.00 0.00 0.00 67 1017.7
20260506121553 52 204 0.0 5.2 0.00 0.00 0.00 68 1017.9
20260506120052 52 150 0.9 4.3 0.00 0.00 0.00 69 1017.6
20260506114552 52 44 0.9 6.1 0.00 0.00 0.00 70 1017.6
20260506113045 52 46 1.7 6.1 0.00 0.00 0.00 74 1017.6
20260506111542 51 234 0.9 4.3 0.00 0.00 0.00 78 1017.3
20260506110042 51 141 0.0 1.7 0.00 0.00 0.00 79 1017.1
20260506104544 51 132 0.0 0.9 0.00 0.00 0.00 79 1017.1
20260506103039 50 132 0.0 1.7 0.00 0.00 0.00 79 1017.0
20260506101538 50 135 0.0 1.7 0.00 0.00 0.00 78 1017.0
20260506100039 50 99 0.0 1.7 0.00 0.00 0.00 77 1016.9
20260506094535 50 158 0.0 0.0 0.00 0.00 0.00 76 1016.9
20260506093033 50 158 0.0 6.1 0.00 0.00 0.00 75 1016.7
20260506091532 50 146 0.0 0.9 0.00 0.00 0.00 73 1016.7
20260506090029 50 145 0.0 0.9 0.00 0.00 0.00 72 1016.6
20260506084527 50 144 0.0 0.9 0.00 0.00 0.00 71 1016.5
20260506083024 50 145 0.0 0.9 0.00 0.00 0.00 71 1016.3
20260506081522 50 145 0.0 0.9 0.00 0.00 0.00 69 1016.1
20260506073015 52 145 0.0 0.0 0.00 0.00 0.00 68 1015.9
20260506071616 52 145 0.0 0.9 0.00 0.00 0.00 68 1015.9
20260506061505 55 145 0.0 0.0 0.00 0.00 0.00 67 1015.5
20260506044502 57 61 0.0 2.6 0.00 0.00 0.00 66 1014.5
20260506043002 57 142 0.0 1.7 0.00 0.00 0.00 66 1014.4
20260506041501 58 112 0.0 1.7 0.00 0.00 0.00 65 1014.3
20260506040001 58 146 0.0 0.9 0.00 0.00 0.00 65 1014.3
20260506034605 59 148 0.0 0.0 0.00 0.00 0.00 64 1014.2
20260506033100 60 148 0.0 0.9 0.00 0.00 0.00 63 1014.0